This demonstration page uses our WeatherBlox Daily Observations layout. Learn more.

Left ArrowRight Arrow

39.08367, -84.50855

Hourly Observations for March 11, 2020

Temp ( °F °C ) Dew Point ( °F °C ) Humidity (%) Winds ( mph kmh ) Pressure ( in mb ) Visibility ( mi km ) Precip ( " mm )
12:31 am 00:31 Cloudy 46 7.8 41 5 83 83 NNE 9 15 30.23 1024 9 14 N/A
12:48 am 00:48 Cloudy 46 8 41 5 82 82 NE 7 11 30.22 1023 9 14 N/A
12:53 am 00:53 Cloudy 46 7.8 41 5 83 83 NE 6 9 30.21 1023 9 14 N/A
1:06 am 01:06 Cloudy 45 7.2 41 5 86 86 NNE 5 7 30.23 1024 9 14 N/A
1:53 am 01:53 Cloudy 45 7.2 41 5 86 86 NNE 5 7 30.21 1023 10 16 N/A
2:53 am 02:53 Cloudy 45 7.2 41 5 86 86 N N/A 30.18 1022 10 16 N/A
3:53 am 03:53 Cloudy 45 7.2 41 5 86 86 N N/A 30.15 1021 10 16 N/A
4:40 am 04:40 Cloudy 45 7.2 41 5 86 86 N N/A 30.14 1021 9 14 N/A
4:53 am 04:53 Cloudy 45 7.2 41 5 86 86 N N/A 30.13 1020 9 14 N/A
5:07 am 05:07 Cloudy 45 7.2 42 5.6 90 90 N N/A 30.14 1021 9 14 N/A
5:53 am 05:53 Cloudy 45 7.2 42 5.6 90 90 NNW 3 6 30.15 1021 8 13 N/A
6:53 am 06:53 Cloudy with Mist and Fog 45 7.2 43 6.1 93 93 E 3 6 30.12 1020 4 6 N/A
7:53 am 07:53 Cloudy with Mist and Fog 45 7.2 43 6.1 93 93 SSW 5 7 30.10 1019 4 6 N/A
8:53 am 08:53 Cloudy with Mist and Fog 45 7.2 43 6.1 93 93 W 3 6 30.11 1020 6 10 N/A
9:14 am 09:14 Cloudy with Mist and Fog 46 7.8 43 6.1 89 89 N N/A 30.10 1019 6 10 N/A
9:23 am 09:23 Cloudy with Mist and Fog 46 7.8 43 6.1 89 89 N N/A 30.10 1019 6 10 N/A
9:50 am 09:50 Cloudy with Mist and Fog 46 8 43 6 87 87 N N/A 30.11 1020 6 10 N/A
9:53 am 09:53 Cloudy with Mist and Fog 46 7.8 43 6.1 89 89 N N/A 30.10 1019 6 10 N/A
10:09 am 10:09 Cloudy with Mist and Fog 47 8.3 43 6.1 86 86 N N/A 30.11 1020 6 10 N/A
10:53 am 10:53 Cloudy with Mist and Fog 47 8.3 44 6.7 90 90 N N/A 30.10 1019 5 8 N/A
11:53 am 11:53 Cloudy with Mist and Fog 48 8.9 44 6.7 86 86 N N/A 30.09 1019 5 8 N/A
12:53 pm 12:53 Cloudy 49 9.4 44 6.7 83 83 W 3 6 30.09 1019 9 14 N/A
1:00 pm 13:00 Cloudy 50 10 45 7.2 83 83 WSW 7 11 30.10 1019 10 16 N/A
1:53 pm 13:53 Cloudy 50 10 44 6.7 80 80 SW 9 15 30.08 1019 10 16 N/A
2:53 pm 14:53 Cloudy 50 10 44 6.7 80 80 WSW 6 9 30.06 1018 10 16 N/A
3:53 pm 15:53 Cloudy 52 11.1 42 5.6 69 69 WSW 9 15 30.04 1017 10 16 N/A
4:51 pm 16:51 Mostly Cloudy 52 11 41 5 67 67 SW 6 9 30.04 1017 10 16 N/A
4:53 pm 16:53 Mostly Cloudy 52 11.1 42 5.6 69 69 WSW 8 13 30.04 1017 10 16 N/A
5:53 pm 17:53 Mostly Cloudy 53 11.7 42 5.6 66 66 W 6 9 30.03 1017 10 16 N/A
6:53 pm 18:53 Cloudy 52 11.1 41 5 66 66 W 3 6 30.03 1017 10 16 N/A
7:53 pm 19:53 Cloudy 51 10.6 41 5 69 69 N N/A 30.02 1017 10 16 N/A
8:53 pm 20:53 Mostly Clear 49 9.4 41 5 74 74 N N/A 30.02 1017 10 16 N/A
9:53 pm 21:53 Cloudy 45 7.2 41 5 86 86 N N/A 30.02 1017 10 16 N/A
10:53 pm 22:53 Mostly Cloudy 45 7.2 41 5 86 86 N N/A 30.02 1017 10 16 N/A
11:53 pm 23:53 Mostly Cloudy 42 5.6 41 5 96 96 N N/A 30.04 1017 9 14 N/A

Powered by AerisWeather